Portada
METAR-TAF:

METAR-TAF

Aeroports :

Cuenca, Equador

latitud: 02-53-22S, longitud: 078-59-04W, altitud: 2532 m

Observació

L'informe es va fer fa 1 hora i 2 minuts, a les 21:00 UTC
Vent 9 kt del Sud
Temperatura 17°C
Humitat 77%
Pressió 1022 hPa
Visibilitat 10 km o més
Cel ennuvolat a una alçada de 4000 ft
Cel ennuvolat a una alçada de 9000 ft
xàfecs en les proximitats

METAR: SECU 052100Z 18009KT 9999 VCSH BKN040 BKN090 17/13 Q1022

Hora: 17:02 (22:02 UTC)


TAF: manca

Observacions i pronòstics meteorològics de més de 4000 aeroports (METAR i TAF).

Les estacions disponibles són els punts grocs i vermells al mapa.

Posi el ratolí al punt desitjat per veure el nom de l'estació.

Feu clic per veure les observacions i els pronòstics meteorològics.

Per canviar el mapa: feu clic els botons verds amb una creu de color negre per apropar; al botó verd amb un guió per allunyar la imatge; o en les fletxes verdes per a mapes adjacents.


METAR-TAF: